FW5884 Weather Reports


time (UTC)temp
F
wind
direction
speed
knots
gust
knots
rain 1hr
in
rain 24hr
in
rain mn
in
humidity
%
barometer
mb
20260507151535 70 133 0.0 4.3 0.00 0.16 0.00 53 1013.0
20260507151034 71 277 0.0 5.2 0.00 0.16 0.00 53 1012.9
20260507150534 71 93 0.0 7.8 0.00 0.16 0.00 57 1012.7
20260507150033 71 68 0.0 3.5 0.00 0.16 0.00 59 1012.5
20260507145532 71 136 0.0 5.2 0.00 0.16 0.00 61 1012.5
20260507145032 71 65 0.9 4.3 0.00 0.16 0.00 60 1012.5
20260507144535 71 103 1.7 3.5 0.00 0.16 0.00 59 1012.4
20260507144031 71 128 0.0 4.3 0.00 0.16 0.00 58 1012.3
20260507143531 72 127 0.9 5.2 0.00 0.16 0.00 57 1012.2
20260507143033 72 115 1.7 5.2 0.00 0.16 0.00 57 1012.2
20260507142530 72 61 0.9 4.3 0.00 0.16 0.00 54 1012.3
20260507142030 72 98 0.0 4.3 0.00 0.16 0.00 59 1012.2
20260507141530 72 25 0.0 6.1 0.00 0.16 0.00 57 1012.2
20260507141029 72 105 0.9 6.1 0.00 0.16 0.00 57 1012.2
20260507140528 73 150 0.9 3.5 0.00 0.16 0.00 50 1012.3
20260507140030 73 122 0.0 3.5 0.00 0.16 0.00 50 1012.4
20260507135528 73 354 0.0 3.5 0.00 0.16 0.00 55 1012.4
20260507135028 73 176 0.0 6.1 0.00 0.16 0.00 56 1012.3
20260507134529 73 113 0.0 6.1 0.00 0.16 0.00 57 1012.4
20260507134030 72 86 1.7 6.1 0.00 0.16 0.00 53 1012.4
20260507133527 73 97 0.0 3.5 0.00 0.16 0.00 56 1012.4
20260507133025 73 149 0.0 6.1 0.00 0.16 0.00 57 1012.4
20260507132525 72 232 0.9 6.1 0.00 0.16 0.00 58 1012.4
20260507132025 73 147 0.0 3.5 0.00 0.16 0.00 59 1012.4
20260507131534 72 90 0.9 4.3 0.00 0.16 0.00 59 1012.5
20260507131024 72 101 0.0 4.3 0.00 0.16 0.00 62 1012.4
20260507130523 72 125 0.9 5.2 0.00 0.16 0.00 58 1012.4
20260507130024 72 170 0.9 5.2 0.00 0.16 0.00 62 1012.5
20260507125523 72 117 0.0 5.2 0.00 0.17 0.00 64 1012.5
20260507125022 73 98 0.9 5.2 0.00 0.17 0.00 60 1012.5
20260507124524 72 168 0.9 3.5 0.00 0.17 0.00 64 1012.6
20260507124026 72 128 0.0 2.6 0.00 0.17 0.00 63 1012.6
20260507123521 72 134 0.0 3.5 0.00 0.17 0.00 62 1012.5
20260507123023 71 126 0.0 4.3 0.00 0.17 0.00 66 1012.5
20260507122517 71 141 0.9 4.3 0.00 0.17 0.00 64 1012.6
20260507122018 72 135 0.9 4.3 0.00 0.17 0.00 65 1012.5
20260507121517 72 120 0.0 4.3 0.00 0.17 0.00 67 1012.6
20260507121017 71 93 0.0 4.3 0.00 0.17 0.00 66 1012.6
20260507120516 71 129 0.0 6.1 0.00 0.17 0.00 65 1012.5
20260507120016 71 330 0.0 5.2 0.00 0.17 0.00 66 1012.6
20260507115518 71 84 0.0 5.2 0.00 0.19 0.00 65 1012.7
20260507115018 71 343 0.9 5.2 0.00 0.19 0.00 65 1012.8
20260507114516 71 141 0.0 4.3 0.00 0.19 0.00 64 1012.7
20260507114015 71 167 0.0 3.5 0.00 0.19 0.00 66 1012.7
20260507113515 71 84 0.0 3.5 0.00 0.19 0.00 64 1012.7
20260507113014 71 139 0.0 3.5 0.00 0.19 0.00 64 1012.8
20260507112513 71 154 0.0 4.3 0.00 0.19 0.00 65 1012.8
20260507112014 71 108 0.0 4.3 0.00 0.19 0.00 64 1012.9
20260507111513 71 351 0.0 5.2 0.00 0.19 0.00 65 1012.9
20260507111012 71 202 0.0 5.2 0.00 0.19 0.00 64 1012.8
20260507110511 70 141 0.9 6.1 0.00 0.19 0.00 65 1012.8
20260507110013 70 131 0.9 5.2 0.00 0.19 0.00 66 1012.9
20260507105511 70 76 0.9 7.0 0.00 0.20 0.00 66 1012.9
20260507105009 70 159 2.6 7.0 0.00 0.20 0.00 64 1013.1
20260507104510 70 97 0.9 6.1 0.00 0.20 0.00 64 1013.1
20260507104010 70 133 0.9 5.2 0.00 0.20 0.00 66 1013.1
20260507103509 70 111 0.9 5.2 0.00 0.20 0.00 67 1013.1
20260507103010 69 150 0.9 9.6 0.00 0.20 0.00 66 1013.1
20260507102509 70 115 1.7 9.6 0.00 0.20 0.00 64 1013.0
20260507102008 70 188 1.7 6.1 0.00 0.20 0.00 65 1013.1
20260507101510 70 127 1.7 4.3 0.00 0.20 0.00 65 1013.1
20260507101008 70 86 0.9 5.2 0.00 0.20 0.00 65 1013.1
20260507100507 70 158 1.7 5.2 0.00 0.20 0.00 66 1013.1
20260507100017 70 53 0.9 5.2 0.00 0.20 0.00 67 1013.1
20260507095506 69 137 0.9 6.1 0.00 0.31 0.00 66 1013.1
20260507095008 69 64 1.7 6.1 0.00 0.31 0.00 67 1013.1
20260507094604 69 241 0.9 7.8 0.00 0.31 0.00 65 1012.9
20260507094003 69 127 0.9 7.8 0.00 0.31 0.00 66 1013.1
20260507093503 69 231 0.9 6.1 0.00 0.31 0.00 68 1012.9
20260507093003 69 122 1.7 4.3 0.00 0.31 0.00 67 1013.0
20260507092505 69 34 0.0 5.2 0.00 0.31 0.00 68 1012.9
20260507092001 69 175 0.9 5.2 0.00 0.31 0.00 69 1013.0
20260507091507 69 87 0.9 4.3 0.00 0.31 0.00 70 1013.0
20260507091001 69 157 0.9 7.0 0.00 0.31 0.00 70 1013.0
20260507090501 68 115 0.9 11.3 0.00 0.31 0.00 69 1013.0
20260507090000 68 160 1.7 11.3 0.00 0.38 0.00 68 1013.0
20260507085601 68 147 0.9 5.2 0.00 0.38 0.00 68 1012.9
20260507085100 68 188 0.9 6.1 0.00 0.38 0.00 68 1012.9
20260507084601 68 162 0.9 6.1 0.00 0.38 0.00 68 1012.8
20260507084059 68 82 0.9 5.2 0.00 0.38 0.00 69 1012.9
20260507083602 68 136 0.9 7.0 0.00 0.38 0.00 69 1012.8
20260507083102 68 233 0.9 7.0 0.00 0.38 0.00 70 1012.8
20260507082557 68 169 0.0 6.1 0.00 0.38 0.00 71 1012.8
20260507082059 67 98 0.9 7.0 0.00 0.38 0.00 71 1012.8
20260507081600 67 123 0.0 7.0 0.00 0.38 0.00 75 1012.7
20260507081057 67 119 0.0 7.0 0.00 0.38 0.00 73 1012.7
20260507080555 68 105 0.9 4.3 0.00 0.38 0.00 71 1012.7
20260507080057 69 101 0.0 2.6 0.00 0.38 0.00 74 1012.6
20260507075557 69 135 0.0 2.6 0.00 0.50 0.00 74 1012.7
20260507075053 68 186 0.0 1.7 0.00 0.50 0.00 75 1012.7
20260507074553 67 101 0.0 5.2 0.00 0.50 0.00 77 1012.7
20260507074053 67 105 0.0 5.2 0.00 0.50 0.00 76 1012.8
20260507073552 67 121 0.9 5.2 0.00 0.50 0.00 76 1012.6
20260507073101 67 129 0.0 0.9 0.00 0.50 0.00 77 1012.6
20260507072552 66 135 0.0 0.0 0.00 0.50 0.00 81 1012.5
20260507072050 65 153 0.0 0.9 0.00 0.50 0.00 80 1012.6
20260507071550 65 138 0.0 1.7 0.00 0.50 0.00 79 1012.6
20260507071050 66 135 0.0 1.7 0.00 0.50 0.00 77 1012.6
20260507070549 66 149 0.0 3.5 0.00 0.50 0.00 77 1012.5
20260507070134 67 140 0.0 4.3 0.00 0.50 0.00 76 1012.4
20260507065547 67 142 0.9 4.3 0.00 0.61 0.00 78 1012.4
20260507065046 66 146 0.0 1.7 0.00 0.61 0.00 80 1012.4
20260507064549 66 158 0.0 3.5 0.00 0.61 0.00 80 1012.4
20260507064045 66 145 0.0 2.6 0.00 0.61 0.00 82 1012.4
20260507063543 65 156 0.0 1.7 0.00 0.61 0.00 83 1012.4
20260507063041 64 138 0.0 2.6 0.00 0.61 0.00 84 1012.4
20260507062539 63 127 0.0 1.7 0.00 0.61 0.00 87 1012.3
20260507062038 62 131 0.0 0.9 0.00 0.61 0.00 87 1012.2
20260507061538 62 139 0.0 0.0 0.00 0.61 0.00 89 1012.3
20260507061036 61 139 0.0 0.9 0.00 0.61 0.00 88 1012.2
20260507060536 61 137 0.0 0.9 0.00 0.61 0.00 88 1012.3
20260507060037 61 137 0.0 0.9 0.00 0.61 0.00 88 1012.3
20260507055535 61 136 0.0 0.9 0.00 0.88 0.00 88 1012.3
20260507055034 61 150 0.0 0.9 0.00 0.88 0.00 89 1012.2
20260507054533 61 139 0.0 1.7 0.00 0.88 0.00 89 1012.1
20260507054032 60 138 0.0 1.7 0.00 0.88 0.00 89 1012.0
20260507053533 60 148 0.0 0.9 0.00 0.88 0.00 90 1012.0
20260507053031 60 132 0.0 0.9 0.00 0.88 0.00 91 1012.0
20260507052530 60 134 0.0 0.9 0.00 0.88 0.00 91 1012.0
20260507052029 60 143 0.0 0.0 0.00 0.88 0.00 92 1012.0
20260507051528 59 140 0.0 0.0 0.00 0.88 0.00 93 1011.9
20260507051027 59 140 0.0 0.0 0.00 0.88 0.00 93 1011.9
20260507050526 59 140 0.0 0.0 0.00 0.88 0.00 93 1011.8
20260507050032 59 140 0.0 0.0 0.00 0.88 0.00 93 1011.8
20260507045529 59 139 0.0 0.0 0.00 0.88 0.00 93 1011.7
20260507045030 59 139 0.0 0.0 0.00 0.88 0.00 93 1011.7
20260507044540 59 139 0.0 0.0 0.00 0.88 0.00 93 1011.7
20260507044026 59 139 0.0 0.0 0.00 0.88 0.00 93 1011.6
20260507043526 59 139 0.0 0.0 0.00 0.88 0.00 93 1011.7
20260507043027 59 139 0.0 0.0 0.00 0.88 0.00 93 1011.5
20260507042526 58 139 0.0 0.0 0.00 0.88 0.00 93 1011.5
20260507042024 58 139 0.0 0.0 0.00 0.88 0.00 93 1011.5
20260507041525 58 139 0.0 0.0 0.00 0.88 0.00 93 1011.5
20260507041025 58 139 0.0 0.0 0.00 0.88 0.00 93 1011.6
20260507040525 58 139 0.0 0.0 0.00 0.88 0.00 92 1011.4
20260507040024 58 139 0.0 0.0 0.00 0.88 0.00 92 1011.4
20260507035524 59 139 0.0 0.0 0.00 0.88 0.00 93 1011.3
20260507035024 58 139 0.0 0.0 0.00 0.88 0.00 93 1011.3
20260507034523 58 139 0.0 0.0 0.00 0.88 0.00 93 1011.4
20260507034023 58 139 0.0 0.0 0.00 0.88 0.00 92 1011.3
20260507033523 58 139 0.0 0.0 0.00 0.88 0.00 92 1011.4
20260507033024 58 139 0.0 0.0 0.00 0.88 0.00 92 1011.3
20260507032523 58 139 0.0 0.0 0.00 0.88 0.00 92 1011.2
20260507032022 58 139 0.0 0.0 0.00 0.88 0.00 92 1011.4
20260507031522 58 139 0.0 0.0 0.00 0.88 0.00 92 1011.3
20260507031024 59 139 0.0 0.0 0.00 0.88 0.00 92 1011.3
20260507030522 59 139 0.0 0.0 0.00 0.88 0.00 92 1011.5
20260507030022 59 139 0.0 0.0 0.00 0.88 0.00 92 1011.4
20260507025522 59 139 0.0 0.0 0.00 0.88 0.00 91 1011.3
20260507025022 59 139 0.0 0.0 0.00 0.88 0.00 91 1011.3
20260507024522 59 139 0.0 0.0 0.00 0.88 0.00 91 1011.4
20260507024022 59 139 0.0 0.9 0.00 0.88 0.00 91 1011.4
20260507023524 59 139 0.0 0.9 0.00 0.88 0.00 91 1011.2
20260507023021 59 141 0.0 0.0 0.00 0.88 0.00 91 1011.3
20260507022521 59 141 0.0 0.9 0.00 0.88 0.00 91 1011.4
20260507022021 59 135 0.0 0.9 0.00 0.88 0.00 91 1011.4
20260507021520 59 137 0.0 0.0 0.00 0.88 0.00 90 1011.4
20260507021020 59 137 0.0 0.0 0.00 0.88 0.00 90 1011.5
20260507020519 60 146 0.0 0.0 0.00 0.88 0.00 90 1011.4
20260507020018 60 148 0.0 3.5 0.00 0.88 0.00 90 1011.3
20260507015516 60 148 0.9 3.5 0.00 0.88 0.00 90 1011.4
20260507015019 60 155 0.0 0.9 0.00 0.88 0.00 90 1011.4
20260507014513 60 132 0.0 0.9 0.00 0.88 0.00 90 1011.3
20260507014012 60 139 0.0 0.0 0.00 0.88 0.00 90 1011.4
20260507013510 60 139 0.0 1.7 0.00 0.88 0.00 90 1011.5
20260507013008 60 139 0.0 1.7 0.00 0.88 0.00 90 1011.4
20260507012511 60 106 0.0 0.0 0.00 0.88 0.00 90 1011.3
20260507012006 60 101 0.0 0.0 0.00 0.88 0.00 90 1011.3
20260507011505 60 115 0.0 0.9 0.00 0.88 0.00 90 1011.3
20260507011004 60 146 0.0 0.0 0.00 0.88 0.00 90 1011.3
20260507010502 60 146 0.0 0.0 0.00 0.88 0.00 90 1011.4
20260507010116 59 146 0.0 0.9 0.00 0.88 0.00 90 1011.3
20260507005600 59 148 0.0 0.9 0.00 0.88 0.00 90 1011.4
20260507005101 59 124 0.0 0.0 0.00 0.88 0.00 90 1011.3
20260507004559 59 157 0.0 0.0 0.00 0.88 0.00 90 1011.3
20260507004059 59 157 0.0 0.0 0.00 0.88 0.00 91 1011.4
20260507003559 59 85 0.0 0.0 0.00 0.88 0.00 90 1011.4
20260507003058 59 83 0.0 0.0 0.00 0.88 0.00 90 1011.4
20260507002558 59 83 0.0 0.0 0.00 0.88 0.00 90 1011.3
20260507002058 59 83 0.0 0.0 0.00 0.88 0.00 89 1011.3
20260507001605 59 83 0.0 1.7 0.00 0.88 0.00 89 1011.3
20260507001101 59 73 0.0 1.7 0.00 0.88 0.00 89 1011.5
20260507000557 59 72 0.0 1.7 0.00 0.88 0.00 89 1011.5
20260507000057 59 125 0.0 1.7 0.00 0.88 0.00 89 1011.4
20260506235557 59 169 0.0 0.9 0.00 0.88 0.00 90 1011.5
20260506235058 59 158 0.0 0.9 0.00 0.88 0.00 90 1011.5
20260506234558 59 86 0.0 1.7 0.00 0.88 0.00 90 1011.5
20260506234055 59 91 0.0 1.7 0.00 0.88 0.00 91 1011.6
20260506233553 59 136 0.0 0.0 0.00 0.88 0.00 91 1011.6
20260506233054 59 136 0.0 0.0 0.00 0.88 0.00 91 1011.7
20260506232549 59 136 0.0 0.9 0.00 0.88 0.00 91 1011.7
20260506232049 59 136 0.0 0.9 0.00 0.88 0.00 91 1011.7
20260506231549 59 162 0.0 0.9 0.00 0.88 0.00 91 1011.9
20260506231052 59 162 0.0 0.9 0.00 0.88 0.00 91 1011.9
20260506230552 59 101 0.0 0.9 0.00 0.88 0.00 91 1011.8
20260506230050 58 85 0.0 1.7 0.00 0.88 0.00 91 1011.8
20260506225548 58 122 0.0 1.7 0.00 0.88 0.00 91 1011.9
20260506225048 58 90 0.0 2.6 0.00 0.88 0.00 91 1011.8
20260506224548 58 92 0.9 2.6 0.00 0.88 0.00 92 1011.7
20260506224046 58 82 0.0 0.9 0.00 0.88 0.00 92 1011.7
20260506223546 58 101 0.0 0.0 0.00 0.88 0.00 92 1011.8
20260506223047 58 101 0.0 0.0 0.00 0.88 0.00 92 1011.8
20260506222546 58 101 0.0 0.0 0.00 0.88 0.00 92 1011.8
20260506222045 58 91 0.0 0.0 0.00 0.88 0.00 92 1011.7
20260506221547 58 118 0.0 0.0 0.00 0.88 0.00 92 1011.6
20260506221044 58 118 0.0 0.0 0.00 0.88 0.00 92 1011.7
20260506220544 58 118 0.0 2.6 0.00 0.88 0.00 92 1011.7
20260506220044 58 73 0.0 2.6 0.00 0.88 0.00 92 1011.6
20260506215545 58 120 0.0 0.0 0.00 0.88 0.88 92 1011.6
20260506215043 58 120 0.0 0.0 0.00 0.88 0.88 92 1011.7
20260506214545 58 120 0.0 0.0 0.00 0.88 0.88 92 1011.7
20260506214042 58 120 0.0 0.0 0.00 0.88 0.88 92 1011.6
20260506213543 58 120 0.0 0.0 0.00 0.88 0.88 92 1011.5
20260506213042 58 120 0.0 0.0 0.00 0.88 0.88 92 1011.5
20260506212544 58 119 0.0 0.0 0.00 0.88 0.88 92 1011.5
20260506212044 58 120 0.0 0.0 0.00 0.88 0.88 92 1011.5
20260506211542 58 120 0.0 0.0 0.00 0.88 0.88 92 1011.5
20260506211041 58 120 0.0 0.9 0.00 0.88 0.88 93 1011.6
20260506210544 58 120 0.0 0.9 0.00 0.88 0.88 94 1011.7
20260506210048 59 120 0.0 0.9 0.00 0.88 0.88 94 1011.6
20260506205541 59 120 0.0 0.0 0.00 0.88 0.88 94 1011.6
20260506205043 59 120 0.0 0.0 0.00 0.88 0.88 94 1011.5
20260506204542 59 120 0.0 0.0 0.00 0.88 0.88 94 1011.6
20260506204041 59 120 0.0 0.0 0.00 0.88 0.88 94 1011.6
20260506203540 59 120 0.0 0.0 0.00 0.88 0.88 94 1011.6
20260506203048 59 120 0.0 0.0 0.00 0.88 0.88 94 1011.6
20260506202540 59 120 0.0 0.0 0.00 0.88 0.88 94 1011.5
20260506202040 59 120 0.0 0.0 0.00 0.88 0.88 94 1011.6
20260506201554 59 120 0.0 0.0 0.00 0.88 0.88 94 1011.5
20260506201040 59 120 0.0 0.0 0.00 0.88 0.88 94 1011.5
20260506200539 59 120 0.0 0.0 0.00 0.88 0.88 94 1011.5
20260506200039 59 120 0.0 0.0 0.00 0.88 0.88 93 1011.5
20260506195540 59 120 0.0 0.0 0.00 0.88 0.88 93 1011.2
20260506195041 59 121 0.0 0.0 0.00 0.88 0.88 93 1011.3
20260506194548 59 120 0.0 0.0 0.00 0.88 0.88 93 1011.3
20260506194040 59 162 0.0 0.9 0.00 0.88 0.88 93 1011.2
20260506193540 59 85 0.0 2.6 0.00 0.88 0.88 94 1011.0
20260506193044 59 129 0.0 2.6 0.00 0.88 0.88 94 1011.0
20260506192538 59 102 0.0 0.9 0.00 0.88 0.88 94 1010.9
20260506192040 59 102 0.0 0.9 0.00 0.88 0.88 94 1010.8
20260506191542 59 105 0.0 0.0 0.00 0.88 0.88 94 1010.7
20260506191038 59 105 0.0 0.0 0.00 0.88 0.88 94 1010.6
20260506190537 60 105 0.0 0.0 0.00 0.88 0.88 93 1010.5
20260506190038 60 105 0.0 0.0 0.00 0.88 0.88 93 1010.4
20260506185537 60 105 0.0 2.6 0.00 0.88 0.88 93 1010.2
20260506185037 60 105 0.0 2.6 0.00 0.88 0.88 93 1010.3
20260506184547 60 129 0.0 0.9 0.00 0.88 0.88 94 1010.2
20260506184037 60 129 0.0 1.7 0.00 0.88 0.88 94 1010.0
20260506183539 60 155 0.0 1.7 0.00 0.88 0.88 94 1010.1
20260506183040 60 127 0.0 1.7 0.00 0.88 0.88 94 1010.1
20260506182536 60 113 0.0 3.5 0.00 0.88 0.88 95 1010.1
20260506182036 60 137 0.0 0.9 0.00 0.88 0.88 95 1010.1
20260506181536 60 96 0.0 0.0 0.00 0.88 0.88 95 1010.2
20260506181035 60 96 0.0 0.0 0.00 0.88 0.88 94 1010.1
20260506180537 60 125 0.0 0.0 0.00 0.88 0.88 94 1010.2
20260506180036 61 125 0.0 0.0 0.00 0.88 0.88 94 1010.1
20260506175536 61 90 0.0 0.0 0.06 0.88 0.88 94 1010.1
20260506175035 61 87 0.0 0.0 0.16 0.88 0.88 94 1010.1
20260506174535 61 87 0.0 0.0 0.16 0.88 0.88 94 1010.1
20260506174035 61 87 0.0 0.0 0.16 0.88 0.88 94 1010.1
20260506173538 61 82 0.0 0.0 0.16 0.88 0.88 94 1010.2
20260506173040 61 82 0.0 0.0 0.16 0.88 0.88 93 1010.1
20260506172534 61 114 0.0 0.0 0.16 0.88 0.88 93 1010.1
20260506172034 61 117 0.0 0.0 0.16 0.88 0.88 92 1010.0
20260506171544 61 117 0.0 0.0 0.16 0.88 0.88 92 1010.0
20260506171035 61 117 0.0 0.9 0.16 0.88 0.88 91 1009.8
20260506170533 62 77 0.0 3.5 0.16 0.88 0.88 91 1009.7
20260506170034 62 150 0.0 3.5 0.16 0.88 0.88 89 1009.8
20260506165535 63 158 0.0 3.5 0.06 0.80 0.78 86 1009.9
20260506165033 64 107 0.0 1.7 0.00 0.75 0.72 85 1009.2
20260506164533 64 92 0.0 4.3 0.00 0.75 0.72 84 1008.9
20260506164031 64 133 0.0 4.3 0.00 0.75 0.72 84 1008.9
20260506163532 64 109 0.0 2.6 0.00 0.75 0.72 84 1009.0
20260506163039 64 155 0.0 5.2 0.00 0.75 0.72 84 1009.2
20260506162532 64 137 0.9 5.2 0.00 0.75 0.72 84 1009.3
20260506162032 64 104 0.0 2.6 0.00 0.75 0.72 84 1009.5
20260506161532 65 165 0.0 0.9 0.00 0.75 0.72 85 1009.6
20260506161027 65 135 0.0 0.9 0.00 0.75 0.72 86 1009.6
20260506160535 65 101 0.0 0.0 0.00 0.75 0.72 87 1009.6
20260506160030 65 101 0.0 0.0 0.00 0.75 0.72 87 1009.6
20260506155526 64 154 0.0 0.0 0.00 0.80 0.72 86 1009.7
20260506155025 64 77 0.0 2.6 0.00 0.80 0.72 88 1009.6
20260506154531 64 133 0.0 2.6 0.00 0.80 0.72 88 1009.7
20260506154026 64 171 0.0 2.6 0.00 0.80 0.72 88 1009.7
20260506153524 63 123 0.0 2.6 0.00 0.80 0.72 87 1009.7
20260506153022 64 167 0.0 0.9 0.00 0.80 0.72 89 1009.7
20260506152525 63 101 0.0 2.6 0.00 0.80 0.72 89 1009.9
20260506152020 63 148 0.0 2.6 0.00 0.80 0.72 89 1010.0